| time (UTC) | temp F | wind direction | speed MPH | gust MPH | rain 1hr in | rain 24hr in | rain mn in | humidity % | barometer mb |
| 20260503220535 | 73 | 251 | 0.0 | 7.0 | 0.00 | 0.00 | 0.00 | 16 | 1010.3 |
| 20260503220029 | 73 | 254 | 1.0 | 11.0 | 0.00 | 0.00 | 0.00 | 16 | 1010.4 |
| 20260503215523 | 73 | 213 | 1.0 | 11.0 | 0.00 | 0.00 | 0.00 | 16 | 1010.5 |
| 20260503214511 | 73 | 183 | 2.0 | 12.0 | 0.00 | 0.00 | 0.00 | 17 | 1010.6 |
| 20260503213500 | 75 | 182 | 1.0 | 18.0 | 0.00 | 0.00 | 0.00 | 16 | 1010.6 |
| 20260503212953 | 75 | 301 | 1.0 | 11.0 | 0.00 | 0.00 | 0.00 | 15 | 1010.9 |
| 20260503212447 | 76 | 42 | 0.0 | 4.0 | 0.00 | 0.00 | 0.00 | 14 | 1010.9 |
| 20260503211941 | 76 | 340 | 0.0 | 4.0 | 0.00 | 0.00 | 0.00 | 13 | 1010.8 |
| 20260503211435 | 76 | 263 | 0.0 | 1.0 | 0.00 | 0.00 | 0.00 | 13 | 1010.8 |
| 20260503210929 | 76 | 236 | 0.0 | 1.0 | 0.00 | 0.00 | 0.00 | 13 | 1010.8 |
| 20260503210423 | 76 | 187 | 0.0 | 0.0 | 0.00 | 0.00 | 0.00 | 13 | 1010.6 |
| 20260503205919 | 77 | 80 | 0.0 | 0.0 | 0.00 | 0.00 | 0.00 | 13 | 1010.8 |
| 20260503205411 | 77 | 80 | 0.0 | 7.0 | 0.00 | 0.00 | 0.00 | 14 | 1010.9 |
| 20260503204906 | 76 | 0 | 0.0 | 7.0 | 0.00 | 0.00 | 0.00 | 13 | 1011.0 |
| 20260503204400 | 76 | 327 | 0.0 | 1.0 | 0.00 | 0.00 | 0.00 | 13 | 1011.1 |
| 20260503203854 | 76 | 346 | 0.0 | 2.0 | 0.00 | 0.00 | 0.00 | 13 | 1011.2 |
| 20260503202841 | 76 | 275 | 0.0 | 0.0 | 0.00 | 0.00 | 0.00 | 13 | 1011.3 |
| 20260503202335 | 76 | 275 | 0.0 | 0.0 | 0.00 | 0.00 | 0.00 | 13 | 1011.5 |
| 20260503201323 | 75 | 245 | 0.0 | 1.0 | 0.00 | 0.00 | 0.00 | 13 | 1011.5 |
| 20260503200819 | 75 | 267 | 0.0 | 1.0 | 0.00 | 0.00 | 0.00 | 14 | 1011.7 |
| 20260503200313 | 75 | 280 | 0.0 | 5.0 | 0.00 | 0.00 | 0.00 | 13 | 1011.7 |
| 20260503195805 | 75 | 355 | 0.0 | 5.0 | 0.00 | 0.00 | 0.00 | 14 | 1011.7 |
| 20260503195300 | 75 | 306 | 0.0 | 4.0 | 0.00 | 0.00 | 0.00 | 13 | 1011.8 |
| 20260503194753 | 75 | 300 | 0.0 | 6.0 | 0.00 | 0.00 | 0.00 | 13 | 1011.8 |
| 20260503194247 | 75 | 336 | 3.0 | 12.0 | 0.00 | 0.00 | 0.00 | 13 | 1011.9 |
| 20260503193237 | 77 | 5 | 2.0 | 12.0 | 0.00 | 0.00 | 0.00 | 12 | 1011.9 |
| 20260503192737 | 76 | 283 | 1.0 | 12.0 | 0.00 | 0.00 | 0.00 | 13 | 1012.0 |
| 20260503192237 | 76 | 22 | 0.0 | 4.0 | 0.00 | 0.00 | 0.00 | 13 | 1012.2 |
| 20260503191739 | 76 | 5 | 0.0 | 4.0 | 0.00 | 0.00 | 0.00 | 13 | 1012.3 |
| 20260503191237 | 76 | 306 | 1.0 | 9.0 | 0.00 | 0.00 | 0.00 | 12 | 1012.4 |
| 20260503190738 | 76 | 317 | 2.0 | 9.0 | 0.00 | 0.00 | 0.00 | 12 | 1012.5 |
| 20260503190237 | 76 | 271 | 2.0 | 10.0 | 0.00 | 0.00 | 0.00 | 12 | 1012.5 |
| 20260503185733 | 76 | 315 | 2.0 | 10.0 | 0.00 | 0.00 | 0.00 | 13 | 1012.7 |
| 20260503184731 | 76 | 19 | 3.0 | 11.0 | 0.00 | 0.00 | 0.00 | 13 | 1012.6 |
| 20260503183732 | 76 | 15 | 1.0 | 9.0 | 0.00 | 0.00 | 0.00 | 12 | 1013.0 |
| 20260503183232 | 75 | 76 | 1.0 | 8.0 | 0.00 | 0.00 | 0.00 | 12 | 1013.1 |
| 20260503182732 | 75 | 217 | 1.0 | 5.0 | 0.00 | 0.00 | 0.00 | 12 | 1013.2 |
| 20260503182227 | 75 | 313 | 1.0 | 7.0 | 0.00 | 0.00 | 0.00 | 13 | 1013.3 |
| 20260503181228 | 74 | 239 | 0.0 | 3.0 | 0.00 | 0.00 | 0.00 | 13 | 1013.4 |
| 20260503180227 | 73 | 330 | 0.0 | 2.0 | 0.00 | 0.00 | 0.00 | 15 | 1013.7 |
| 20260503175727 | 73 | 5 | 0.0 | 2.0 | 0.00 | 0.00 | 0.00 | 16 | 1013.8 |
| 20260503175227 | 72 | 317 | 0.0 | 2.0 | 0.00 | 0.00 | 0.00 | 16 | 1013.9 |
| 20260503174727 | 72 | 252 | 0.0 | 0.0 | 0.00 | 0.00 | 0.00 | 17 | 1013.9 |
| 20260503174228 | 72 | 277 | 0.0 | 1.0 | 0.00 | 0.00 | 0.00 | 18 | 1014.0 |
| 20260503173723 | 71 | 263 | 0.0 | 3.0 | 0.00 | 0.00 | 0.00 | 17 | 1014.1 |
| 20260503173224 | 71 | 252 | 0.0 | 3.0 | 0.00 | 0.00 | 0.00 | 17 | 1014.1 |
| 20260503172724 | 71 | 245 | 0.0 | 2.0 | 0.00 | 0.00 | 0.00 | 18 | 1014.3 |
| 20260503172223 | 71 | 257 | 0.0 | 2.0 | 0.00 | 0.00 | 0.00 | 18 | 1014.3 |
| 20260503171724 | 71 | 254 | 0.0 | 0.0 | 0.00 | 0.00 | 0.00 | 19 | 1014.4 |
| 20260503171223 | 71 | 250 | 0.0 | 4.0 | 0.00 | 0.00 | 0.00 | 19 | 1014.4 |
| 20260503170225 | 71 | 251 | 0.0 | 7.0 | 0.00 | 0.00 | 0.00 | 20 | 1014.6 |
| 20260503160209 | 65 | 261 | 0.0 | 2.0 | 0.00 | 0.00 | 0.00 | 26 | 1015.1 |
| 20260503150645 | 61 | 248 | 0.0 | 1.0 | 0.00 | 0.00 | 0.00 | 28 | 1015.4 |
| 20260503130926 | 51 | 239 | 0.0 | 0.0 | 0.00 | 0.00 | 0.00 | 40 | 1015.5 |
| 20260503130421 | 51 | 241 | 0.0 | 0.0 | 0.00 | 0.00 | 0.00 | 40 | 1015.4 |
| 20260503110703 | 49 | 207 | 0.0 | 0.0 | 0.00 | 0.00 | 0.00 | 41 | 1014.7 |
| 20260503110157 | 49 | 207 | 0.0 | 0.0 | 0.00 | 0.00 | 0.00 | 41 | 1014.8 |
| 20260503081540 | 48 | 120 | 0.0 | 0.0 | 0.00 | 0.00 | 0.00 | 37 | 1015.3 |
| 20260503081040 | 48 | 120 | 0.0 | 0.0 | 0.00 | 0.00 | 0.00 | 37 | 1015.3 |
| 20260503072034 | 50 | 120 | 0.0 | 0.0 | 0.00 | 0.00 | 0.00 | 36 | 1015.8 |
| 20260503071531 | 51 | 120 | 0.0 | 0.0 | 0.00 | 0.00 | 0.00 | 36 | 1015.8 |
| 20260503071029 | 51 | 120 | 0.0 | 0.0 | 0.00 | 0.00 | 0.00 | 36 | 1015.8 |
| 20260503055001 | 53 | 119 | 0.0 | 0.0 | 0.00 | 0.00 | 0.00 | 31 | 1015.8 |
| 20260503054456 | 53 | 119 | 0.0 | 0.0 | 0.00 | 0.00 | 0.00 | 31 | 1015.7 |
| 20260503053950 | 53 | 119 | 0.0 | 0.0 | 0.00 | 0.00 | 0.00 | 31 | 1015.8 |
| 20260503053442 | 54 | 119 | 0.0 | 0.0 | 0.00 | 0.00 | 0.00 | 31 | 1015.8 |
| 20260503052943 | 54 | 119 | 0.0 | 0.0 | 0.00 | 0.00 | 0.00 | 30 | 1015.8 |
| 20260503052441 | 54 | 119 | 0.0 | 0.0 | 0.00 | 0.00 | 0.00 | 30 | 1015.8 |
| 20260503051941 | 55 | 119 | 0.0 | 0.0 | 0.00 | 0.00 | 0.00 | 30 | 1015.8 |
| 20260503051440 | 55 | 119 | 0.0 | 0.0 | 0.00 | 0.00 | 0.00 | 29 | 1015.8 |
| 20260503050438 | 56 | 119 | 0.0 | 0.0 | 0.00 | 0.00 | 0.00 | 29 | 1015.8 |
| 20260503045939 | 56 | 119 | 0.0 | 0.0 | 0.00 | 0.00 | 0.00 | 29 | 1015.7 |
| 20260503045439 | 56 | 119 | 0.0 | 0.0 | 0.00 | 0.00 | 0.00 | 29 | 1015.7 |
| 20260503044941 | 56 | 119 | 0.0 | 0.0 | 0.00 | 0.00 | 0.00 | 29 | 1015.8 |
| 20260503043937 | 56 | 119 | 0.0 | 0.0 | 0.00 | 0.00 | 0.00 | 29 | 1015.8 |
| 20260503042936 | 56 | 119 | 0.0 | 0.0 | 0.00 | 0.00 | 0.00 | 28 | 1015.8 |
| 20260503042436 | 57 | 119 | 0.0 | 0.0 | 0.00 | 0.00 | 0.00 | 28 | 1015.8 |
| 20260503041432 | 57 | 119 | 0.0 | 0.0 | 0.00 | 0.00 | 0.00 | 28 | 1015.8 |
| 20260503040432 | 58 | 119 | 0.0 | 0.0 | 0.00 | 0.00 | 0.00 | 27 | 1015.8 |
| 20260503035432 | 58 | 119 | 0.0 | 0.0 | 0.00 | 0.00 | 0.00 | 26 | 1015.9 |
| 20260503034932 | 59 | 119 | 0.0 | 0.0 | 0.00 | 0.00 | 0.00 | 25 | 1015.8 |
| 20260503034432 | 59 | 119 | 0.0 | 0.0 | 0.00 | 0.00 | 0.00 | 24 | 1015.8 |
| 20260503033432 | 60 | 119 | 0.0 | 0.0 | 0.00 | 0.00 | 0.00 | 22 | 1015.8 |
| 20260503032432 | 60 | 119 | 0.0 | 0.0 | 0.00 | 0.00 | 0.00 | 20 | 1015.7 |
| 20260503031933 | 60 | 119 | 0.0 | 0.0 | 0.00 | 0.00 | 0.00 | 19 | 1015.7 |
| 20260503031432 | 61 | 119 | 0.0 | 0.0 | 0.00 | 0.00 | 0.00 | 18 | 1015.7 |
| 20260503030932 | 61 | 119 | 0.0 | 0.0 | 0.00 | 0.00 | 0.00 | 18 | 1015.5 |
| 20260503030434 | 61 | 119 | 0.0 | 0.0 | 0.00 | 0.00 | 0.00 | 17 | 1015.5 |
| 20260503025932 | 62 | 119 | 0.0 | 0.0 | 0.00 | 0.00 | 0.00 | 17 | 1015.7 |
| 20260503025431 | 62 | 119 | 0.0 | 0.0 | 0.00 | 0.00 | 0.00 | 16 | 1015.5 |
| 20260503024924 | 62 | 119 | 0.0 | 0.0 | 0.00 | 0.00 | 0.00 | 16 | 1015.5 |
| 20260503024418 | 63 | 119 | 0.0 | 0.0 | 0.00 | 0.00 | 0.00 | 15 | 1015.5 |
| 20260503023911 | 63 | 119 | 0.0 | 0.0 | 0.00 | 0.00 | 0.00 | 15 | 1015.4 |
| 20260503023407 | 64 | 119 | 0.0 | 0.0 | 0.00 | 0.00 | 0.00 | 14 | 1015.4 |
| 20260503021848 | 65 | 119 | 0.0 | 1.0 | 0.00 | 0.00 | 0.00 | 14 | 1015.2 |
| 20260503021342 | 66 | 119 | 0.0 | 0.0 | 0.00 | 0.00 | 0.00 | 13 | 1015.2 |
| 20260503020836 | 66 | 119 | 0.0 | 0.0 | 0.00 | 0.00 | 0.00 | 13 | 1015.1 |
| 20260503020331 | 67 | 119 | 0.0 | 1.0 | 0.00 | 0.00 | 0.00 | 12 | 1015.1 |
| 20260503015825 | 67 | 119 | 0.0 | 1.0 | 0.00 | 0.00 | 0.00 | 12 | 1015.1 |
| 20260503015318 | 67 | 119 | 0.0 | 1.0 | 0.00 | 0.00 | 0.00 | 12 | 1015.1 |
| 20260503014812 | 68 | 119 | 0.0 | 0.0 | 0.00 | 0.00 | 0.00 | 11 | 1015.1 |
| 20260503013800 | 68 | 119 | 0.0 | 0.0 | 0.00 | 0.00 | 0.00 | 11 | 1015.1 |
| 20260503012747 | 68 | 119 | 0.0 | 0.0 | 0.00 | 0.00 | 0.00 | 11 | 1015.0 |
| 20260503012243 | 68 | 119 | 0.0 | 0.0 | 0.00 | 0.00 | 0.00 | 11 | 1015.0 |
| 20260503011736 | 69 | 119 | 0.0 | 0.0 | 0.00 | 0.00 | 0.00 | 10 | 1015.0 |
| 20260503010723 | 69 | 119 | 0.0 | 0.0 | 0.00 | 0.00 | 0.00 | 10 | 1015.0 |
| 20260503010218 | 69 | 119 | 0.0 | 0.0 | 0.00 | 0.00 | 0.00 | 10 | 1014.8 |
| 20260503005712 | 70 | 119 | 0.0 | 0.0 | 0.00 | 0.00 | 0.00 | 10 | 1014.7 |
| 20260503005206 | 70 | 119 | 0.0 | 1.0 | 0.00 | 0.00 | 0.00 | 9 | 1014.8 |
| 20260503004700 | 71 | 119 | 0.0 | 2.0 | 0.00 | 0.00 | 0.00 | 9 | 1014.7 |
| 20260503004155 | 71 | 119 | 0.0 | 2.0 | 0.00 | 0.00 | 0.00 | 9 | 1014.8 |
| 20260503003649 | 72 | 121 | 0.0 | 2.0 | 0.00 | 0.00 | 0.00 | 9 | 1015.0 |
| 20260503002636 | 72 | 120 | 0.0 | 0.0 | 0.00 | 0.00 | 0.00 | 9 | 1015.0 |
| 20260503002130 | 73 | 120 | 0.0 | 2.0 | 0.00 | 0.00 | 0.00 | 8 | 1015.0 |
| 20260503001624 | 73 | 118 | 0.0 | 1.0 | 0.00 | 0.00 | 0.00 | 8 | 1015.1 |
| 20260503001118 | 73 | 117 | 0.0 | 1.0 | 0.00 | 0.00 | 0.00 | 6 | 1015.1 |
| 20260503000611 | 73 | 117 | 0.0 | 1.0 | 0.00 | 0.00 | 0.00 | 7 | 1015.1 |
| 20260503000108 | 73 | 117 | 0.0 | 1.0 | 0.00 | 0.00 | 0.00 | 8 | 1015.2 |
| 20260502235601 | 74 | 117 | 0.0 | 1.0 | 0.00 | 0.00 | 0.00 | 7 | 1015.2 |
| 20260502235054 | 74 | 116 | 0.0 | 0.0 | 0.00 | 0.00 | 0.00 | 7 | 1015.3 |
| 20260502234042 | 74 | 117 | 0.0 | 1.0 | 0.00 | 0.00 | 0.00 | 7 | 1015.4 |
| 20260502233535 | 75 | 109 | 0.0 | 1.0 | 0.00 | 0.00 | 0.00 | 8 | 1015.4 |
| 20260502233030 | 75 | 109 | 0.0 | 0.0 | 0.00 | 0.00 | 0.00 | 7 | 1015.4 |
| 20260502232017 | 75 | 105 | 0.0 | 0.0 | 0.00 | 0.00 | 0.00 | 7 | 1015.5 |
| 20260502231511 | 75 | 106 | 0.0 | 0.0 | 0.00 | 0.00 | 0.00 | 7 | 1015.4 |
| 20260502231005 | 76 | 105 | 0.0 | 2.0 | 0.00 | 0.00 | 0.00 | 6 | 1015.5 |
| 20260502230501 | 75 | 105 | 0.0 | 2.0 | 0.00 | 0.00 | 0.00 | 7 | 1015.5 |
| 20260502225955 | 75 | 109 | 0.0 | 0.0 | 0.00 | 0.00 | 0.00 | 7 | 1015.5 |
| 20260502225449 | 76 | 111 | 0.0 | 1.0 | 0.00 | 0.00 | 0.00 | 8 | 1015.5 |
| 20260502224942 | 75 | 111 | 0.0 | 3.0 | 0.00 | 0.00 | 0.00 | 9 | 1015.7 |
| 20260502224437 | 74 | 111 | 0.0 | 3.0 | 0.00 | 0.00 | 0.00 | 8 | 1015.7 |
| 20260502223929 | 75 | 113 | 0.0 | 3.0 | 0.00 | 0.00 | 0.00 | 8 | 1015.7 |
| 20260502223423 | 75 | 113 | 0.0 | 0.0 | 0.00 | 0.00 | 0.00 | 8 | 1015.7 |
| 20260502222918 | 75 | 113 | 0.0 | 3.0 | 0.00 | 0.00 | 0.00 | 7 | 1015.7 |
| 20260502222411 | 75 | 113 | 0.0 | 3.0 | 0.00 | 0.00 | 0.00 | 6 | 1015.9 |
| 20260502221905 | 75 | 117 | 0.0 | 0.0 | 0.00 | 0.00 | 0.00 | 7 | 1015.9 |
| 20260502221359 | 76 | 118 | 0.0 | 4.0 | 0.00 | 0.00 | 0.00 | 8 | 1016.0 |